Location: Beetenbrück
(52.8113°N, 9.5946°E)
Time: 21:18:12
(UTC+00:00)

Cosmos 2173 Rocket - Pass Details

Date: 14 April 2026
Orbit: 944 x 999 km, 83.0° (Epoch: 12 May)

Event Time Altitude Azimuth Distance (km) Brightness Sun altitude
Exits shadow 22:22:37 55° 110° (ESE) 1,133 4.1 -26.2°
Maximum altitude 22:23:03 56° 93° (E) 1,119 4.1 -26.3°
Drops below altitude 10° 22:28:59 10° 17° (NNE) 2,679 7.0 -26.5°
Sets 22:31:32 0° 13° (NNE) 3,631 8.0 -26.6°
